Location: Caltech
(34.1382°N, 118.1253°W)
Time: 15:20:04
(UTC-07:00)

Tiros 1 despin weight - All Passes

Search period start: 01 October 2014 00:00
Search period end: 11 October 2014 00:00
Orbit: 601 x 652 km, 48.2° (Epoch: 01 October)

Date Brightness Start Highest point End Pass type
(mag) Time Alt. Az. Time Alt. Az. Time Alt. Az.
01 Oct - 00:00:00 44° NW 00:01:25 85° NE 00:05:59 10° SE night (unlit)
01 Oct - 01:40:21 10° W 01:42:41 14° SW 01:45:02 10° SSW night (unlit)
01 Oct - 15:44:46 10° SSW 15:48:39 29° SE 15:52:31 10° ENE daylight
01 Oct - 17:26:00 10° WSW 17:30:15 43° NNW 17:34:30 10° NE daylight
01 Oct - 19:10:10 10° NW 19:12:52 16° NNW 19:15:34 10° NNE visible
01 Oct - 20:53:38 10° NNW 20:56:04 14° N 20:58:30 10° NE visible
01 Oct - 22:34:47 10° NW 22:38:51 33° NNE 22:42:58 10° E visible
02 Oct - 00:16:23 10° WNW 00:20:40 44° SW 00:24:59 10° SSE night (unlit)
02 Oct - 16:03:23 10° SW 16:07:48 68° SE 16:12:13 10° ENE daylight
02 Oct - 17:46:07 10° W 17:49:49 25° NNW 17:53:32 10° NNE daylight
02 Oct - 19:30:38 10° NNW 19:32:47 13° N 19:34:57 10° NNE visible
02 Oct - 21:12:49 10° NNW 21:15:56 18° NNE 21:19:04 10° ENE visible
02 Oct - 22:53:53 10° NW 22:58:20 63° NE 23:02:49 10° ESE night (unlit)
03 Oct - 00:36:29 10° W 00:39:45 20° SW 00:43:02 10° S night (unlit)
03 Oct - 14:42:18 10° S 14:45:41 21° SE 14:49:03 10° E daylight
03 Oct - 16:22:44 10° WSW 16:27:07 57° NW 16:31:30 10° NE daylight
03 Oct - 18:06:34 10° WNW 18:09:34 17° NNW 18:12:34 10° NNE daylight
03 Oct - 19:50:32 10° NNW 19:52:44 13° N 19:54:56 10° NE visible
03 Oct - 21:31:50 10° NNW 21:35:39 27° NNE 21:39:29 10° E visible
03 Oct - 23:13:12 10° WNW 23:17:38 62° SW 23:22:06 10° SE night (unlit)
04 Oct - 15:00:28 10° SSW 15:04:46 48° SE 15:09:03 10° ENE daylight
04 Oct - 16:42:38 10° W 16:46:36 31° NNW 16:50:35 10° NE daylight
04 Oct - 18:27:06 10° NW 18:29:26 14° N 18:31:46 10° NNE daylight
04 Oct - 20:09:50 10° NNW 20:12:38 16° NNE 20:15:25 10° NE visible
04 Oct - 21:50:53 10° NW 21:55:12 47° NNE 21:59:32 10° ESE visible
04 Oct - 23:32:58 10° WNW 23:36:46 27° SW 23:40:36 10° S night (unlit)
05 Oct - 13:40:10 10° SSE 13:42:43 15° SE 13:45:15 10° E daylight
05 Oct - 15:19:31 10° SW 15:24:00 78° NW 15:28:27 10° NE daylight
05 Oct - 17:02:57 10° WNW 17:06:16 20° NNW 17:09:35 10° NNE daylight
05 Oct - 18:47:17 10° NNW 18:49:22 13° N 18:51:27 10° NNE daylight
05 Oct - 20:28:53 10° NNW 20:32:24 22° NNE 20:35:56 10° ENE visible
05 Oct - 22:10:05 10° NW 22:14:33 86° SW 22:19:04 10° SE visible
05 Oct - 23:54:07 10° WSW 23:55:45 12° SW 23:57:23 10° SSW night (unlit)
06 Oct - 13:57:40 10° SSW 14:01:44 34° SE 14:05:46 10° ENE daylight
06 Oct - 15:39:12 10° W 15:43:24 39° NNW 15:47:36 10° NE daylight
06 Oct - 17:23:29 10° NW 17:26:05 15° NNW 17:28:40 10° NNE daylight
06 Oct - 19:06:47 10° NNW 19:09:17 15° N 19:11:47 10° NE visible
06 Oct - 20:47:53 10° NW 20:52:00 36° NNE 20:56:09 10° E visible
06 Oct - 22:29:36 10° WNW 22:33:44 38° SW 22:37:55 10° SSE visible
07 Oct - 12:39:18 10° SE 12:39:45 10° SE 12:40:12 10° ESE daylight
07 Oct - 14:16:24 10° SW 14:20:54 77° SE 14:25:21 10° NE daylight
07 Oct - 15:59:21 10° WNW 16:02:59 24° NNW 16:06:36 10° NNE daylight
07 Oct - 17:43:52 10° NNW 17:45:59 13° N 17:48:05 10° NNE daylight
07 Oct - 19:25:53 10° NNW 19:29:06 19° NNE 19:32:19 10° ENE visible
07 Oct - 21:06:59 10° NW 21:11:26 70° NE 21:15:54 10° ESE visible
07 Oct - 22:49:53 10° W 22:52:46 17° SW 22:55:40 10° S night (unlit)
08 Oct - 12:55:03 10° S 12:58:42 24° SE 13:02:20 10° ENE daylight
08 Oct - 14:35:49 10° WSW 14:40:13 51° NNW 14:44:34 10° NE daylight
08 Oct - 16:19:49 10° NW 16:22:43 17° NNW 16:25:37 10° NNE daylight
08 Oct - 18:03:39 10° NNW 18:05:54 14° N 18:08:09 10° NE daylight
08 Oct - 19:44:53 10° NW 19:48:46 29° NNE 19:52:40 10° E visible
08 Oct - 21:26:20 10° WNW 21:30:40 54° SW 21:35:03 10° SE visible
09 Oct - 13:13:22 10° SW 13:17:47 55° SE 13:22:10 10° ENE daylight
09 Oct - 14:55:47 10° W 14:59:42 29° NNW 15:03:36 10° NE daylight
09 Oct - 16:40:19 10° NW 16:42:35 14° N 16:44:50 10° NNE daylight
09 Oct - 18:22:52 10° NNW 18:25:45 17° NNE 18:28:39 10° NE daylight
09 Oct - 20:03:55 10° NW 20:08:15 52° NNE 20:12:37 10° ESE visible
09 Oct - 21:46:11 10° W 21:49:45 24° SW 21:53:20 10° S visible
10 Oct - 11:52:41 10° S 11:55:40 17° SE 11:58:39 10° E daylight
10 Oct - 13:32:31 10° WSW 13:37:01 70° NW 13:41:29 10° NE daylight
10 Oct - 15:16:08 10° WNW 15:19:22 19° NNW 15:22:35 10° NNE daylight
10 Oct - 17:00:22 10° NNW 17:02:29 13° N 17:04:36 10° NNE daylight
10 Oct - 18:41:52 10° NNW 18:45:29 24° NNE 18:49:06 10° ENE visible
10 Oct - 20:23:07 10° NW 20:27:34 76° SW 20:32:01 10° SE visible
